Tracking 20712 objects as of 29-May-2020
HD Live streaming from Space Station
objects crossing your sky now

SL-14 DEB

Track SL-14 DEB now!
10-day predictions


NORAD ID: 26014
Int'l Code: 1991-068Z
Perigee: 1,460.5 km
Apogee: 1,529.3 km
Inclination: 82.7 °
Period: 115.7 minutes
Semi major axis: 7865 km
RCS: 0.0989 m2 (small)
Launch date: September 28, 1991
Source: Commonwealth of Independent States (former USSR) (CIS)
Launch site: PLESETSK MISSILE AND SPACE COMPLEX (PKMTR)

Note: This is SATELLITE DEBRIS
aabbcc
Your satellite tracking list
Your tracking list is empty




NASA's NSSDC Master Catalog

Two Line Element Set (TLE):
1 26014U 91068Z   20150.44256273 -.00000042 +00000-0 -36380-3 0  9999
2 26014 082.7446 226.5254 0043714 343.4156 030.0047 12.44456507937042
Source of the keplerian elements: AFSPC